Regional Weather Roundup
Issued by NWS

Home | Current Version | Previous Version | Graphics & Text | Print | Product List | Glossary On
Versions: 1 2 3 4 5 6 7 8 9 10 11 12 13 14 15 16 17 18 19 20 21 22 23 24 25 26 27 28 29 30 31 32 33 34 35 36 37 38 39 40 41 42 43 44 45 46 47 48 49 50
000
ASUS43 KIND 211109
RWRIN

WEATHER ROUNDUP FOR INDIANA
NATIONAL WEATHER SERVICE INDIANAPOLIS IN
700 AM EDT SAT APR 21 2018

NOTE: "FAIR" INDICATES FEW OR NO CLOUDS BELOW 12,000 FEET WITH NO
SIGNIFICANT WEATHER AND/OR OBSTRUCTIONS TO VISIBILITY.

* - STATION DOES NOT REPORT WEATHER SUCH AS PRECIPITATION OR FOG.

+ - STATION NOT QUALITY CONTROLLED BY THE NATIONAL WEATHER SERVICE.
    USE DATA WITH CAUTION...ESPECIALLY DEWPOINT AND RELATIVE
    HUMIDITY OBSERVATIONS.

INZ001>003-010>013-019-020-211200-
NORTHWEST INDIANA

CITY           SKY/WX    TMP DP  RH WIND       PRES   REMARKS
GARY /AIRPORT/ CLOUDY    36  30  80 CALM      30.45S
KNOX *+        FAIR      32  28  86 CALM      30.43F
LA PORTE +     FAIR      38  22  52 E3        30.43F
MICHIGAN CITY+ FAIR      32  23  69 CALM      30.44F
MONTICELLO +   FAIR      40  26  56 CALM      30.43R
RENSSELAER +   FAIR      37  21  52 NE3       30.43S
VALPARAISO     FAIR      39  22  50 NE5       30.43F WCI  36

$$

LMZ046-743>745-211200-
SOUTHERN LAKE MICHIGAN

STATION/POSITION TIME  TEMP    WIND        PRES    WAVE
                       AIR SEA DIR/SP/G            HT
                 (UTC) (F)     (DEG/KT/KT) (MB)    (FT)
BURNS HARBOR     1040   41      80/  6/  6 1030.8F
MICHIGAN CITY    1040   40      70/  4/  4   N/A

$$

INZ004-005-014>016-021>024-211200-
NORTH CENTRAL INDIANA

CITY           SKY/WX    TMP DP  RH WIND       PRES   REMARKS
GOSHEN         FAIR      32  26  78 CALM      30.44R
LOGANSPORT +   FAIR      36  30  80 E3        30.44S
PERU/GRISSOM   MOCLDY    34  27  75 E5        30.43  WCI  30
ROCHESTER +    FAIR      36  32  87 CALM      30.44S
SOUTH BEND     FAIR      31  21  66 CALM      30.44S
WARSAW +       FAIR      32  28  86 SE3       30.44S

$$

INZ006>009-017-018-025>027-211200-
NORTHEAST INDIANA

CITY           SKY/WX    TMP DP  RH WIND       PRES   REMARKS
ANGOLA *+      FAIR      36  25  64 CALM      30.44R
AUBURN +       FAIR      32  27  80 CALM      30.46R
FORT WAYNE     MOCLDY    35  27  72 CALM      30.46R
HUNTINGTON +   FAIR      35  26  72 CALM      30.45R

$$

INZ028-029-035-036-043>045-051>053-211200-
WEST CENTRAL INDIANA

CITY           SKY/WX    TMP DP  RH WIND       PRES   REMARKS
CRAWFORDSVL +  FAIR      40  28  63 E6        30.41S WCI  35
GREENCASTLE +  FAIR      39  28  65 CALM      30.41S
LAFAYETTE      FAIR      39  30  70 E5        30.43R WCI  36
TERRE HAUTE    FAIR      38  29  70 NE5       30.40R WCI  34

$$

INZ030>032-037>040-046>048-054>057-064-065-211200-
CENTRAL INDIANA

CITY           SKY/WX    TMP DP  RH WIND       PRES   REMARKS
COLUMBUS       PTCLDY    37 N/A N/A E3        30.42
FISHERS *+     FAIR      37  32  81 E6        30.42R WCI  33
FRANKFORT +    FAIR      42  31  63 CALM      30.44R
GREENWOOD *+   FAIR      42  26  53 E5        30.42R
INDIANAPOLIS   MOCLDY    43  27  53 E7        30.42R
-EAGLE CREEK   FAIR      42  27  55 E3        30.41R
KOKOMO +       FAIR      37  29  72 E5        30.44R WCI  33
MARION +       FAIR      34  30  85 CALM      30.44R
MT COMFORT *+  FAIR      37  32  81 E6        30.43R WCI  33
SHELBYVILLE    FAIR      43  27  53 E10       30.41R
ZIONSVILLE +   FAIR      38  29  69 E6        30.42R WCI  34

$$

INZ033-034-041-042-049-050-058-059-211200-
EAST CENTRAL INDIANA

CITY           SKY/WX    TMP DP  RH WIND       PRES   REMARKS
MUNCIE         FAIR      34  26  72 SE6       30.44R WCI  29
RICHMOND +     FAIR      32  27  80 E8        30.43R WCI  25

$$

INZ060-061-067>069-081>083-085>088-211200-
SOUTHWEST INDIANA

CITY           SKY/WX    TMP DP  RH WIND       PRES   REMARKS
EVANSVILLE     FAIR      43  30  60 NE8       30.36R
HUNTINGBURG +  FAIR      42  28  57 NE6       30.37R
WASHINGTON +   FAIR      38  27  63 NE5       30.38R WCI  35

$$

INZ062-063-066-070>080-084-089>092-211200-
SOUTH CENTRAL AND SOUTHEAST INDIANA

CITY           SKY/WX    TMP DP  RH WIND       PRES   REMARKS
BATESVILLE +   CLEAR     39  25  56 MISG      30.42R
BEDFORD +      FAIR      41  25  52 E5        30.38R
BLOOMINGTON    FAIR      40  26  57 E5        30.39R WCI  37
FRENCH LICK *+ FAIR      41  21  45 NE7       30.38R
MADISON *+     FAIR      41  27  56 E6        30.42R
NORTH VERNON + FAIR      39  25  56 E9        30.41R WCI  33
SEYMOUR +      FAIR      39  28  65 E7        30.40R WCI  34

$$





USA.gov is the U.S. government's official web portal to all federal, state and local government web resources and services.